Voltar ao catálogo

COSMOS 2197

AtivoMilitarPO
NORAD 22034·PAYLOAD·🇷🇺 Russia

Lançado Jul 13, 1992 de Plesetsk Cosmodrome

Loading…

Próximas Passagens (próximas 24 horas)

TLE

AtualizadoSource: Space-Track

Época: Sep 14, 2026, 04:47 UTC

1 22034U 92042A   26257.19978659  .00000034  00000-0  12729-3 0  9995
2 22034  82.5985 172.0722 0013919  71.9726  81.7077 12.64254212576531

Acompanhe COSMOS 2197 em tempo real com AllMySat

Download on the App Store